{"data":{"norad_id":57672,"intl_designator":"2023-124K","name":"STARLINK-30274","alt_names":[],"object_type":"PAYLOAD","status":"ACTIVE","operator":null,"country":"US","launch_date":"2023-08-22","launch_site_code":"AFWTR","launch_vehicle":null,"mission":null,"orbit_class":"UNKNOWN","rcs_meters":null,"size_class":null,"mass_kg":null,"dimensions":null,"purposes":["comms"],"wikipedia_slug":null,"has_3d_model":false,"image_url":null,"decayed_at":null,"tle_current":{"epoch":"2026-09-20T14:00:12.583008Z","epoch_age_seconds":124429,"freshness":"FRESH","line1":"1 57672U 23124K   26263.58347897 -.00001107  00000+0 -21639-4 0  9994","line2":"2 57672  53.1609  18.9977 0001159  72.4709 287.6420 15.34399352173441","mean_motion":15.34399352,"eccentricity":0.0001159,"inclination_deg":53.1609,"raan_deg":18.9977,"arg_perigee_deg":72.4709,"mean_anomaly_deg":287.642,"bstar":-2.1639e-5,"rev_number":17344,"period_min":93.847797714659,"perigee_km":461.91231259328,"apogee_km":463.49801980741,"semimajor_km":6840.8421662003,"source":"CELESTRAK","updated_at":"2026-09-21T09:00:33.671459Z"}}}